Location: Cormont
(50.5693°N, 1.7416°E)
Time: 06:54:59
(UTC+00:00)

STARLINK-74 - Pass Details

Date: 21 October 2019
Orbit: 548 x 551 km, 53.0° (Epoch: 21 November)

Event Time Altitude Azimuth Distance (km) Brightness Sun altitude
Rises 17:55:08 0° 271° (W) 2,717 9.4 -11.1°
Reaches altitude 10° 17:57:23 10° 275° (W) 1,824 7.8 -11.4°
Maximum altitude 18:01:30 61° 357° (N) 627 3.9 -12.1°
Enters shadow 18:04:22 19° 74° (ENE) 1,354 5.0 -12.5°
